Date String (YYYY-MM-DD hh:mm:ss) UTC,Instrument flags,Ambient pressure (hPa),Sample flow (lpm),Bypass flow (lpm),Sample temperature (°C),Ambient temperature (°C),ASC tube jacket temperature (°C),LED temperature (°C),Box temperature (°C),Sample RH (%),Span deviation,Mass concentration (μg/m³),Mass concentration (μg/m³),Mass concentration (μg/m³)
DateTimeUTC,F1_M11,P_M11,Q1_M11,Q2_M11,T1_M11,T2_M11,T3_M11,T4_M11,T5_M11,U1_M11,ZSPAN_M11,X0_M11,X2_M11,X1_M11
2022-11-29 21:00:00,,0818.9,5.00,0.00,21.4,19.9,00.0,30.4,23.1,11.4,0000.0,0004.15,0002.61,0002.16
2022-11-29 21:01:00,,0818.9,5.00,0.00,21.4,19.8,00.0,30.4,23.0,11.5,0000.0,0004.48,0002.66,0002.16
2022-11-29 21:02:00,,0818.8,5.01,0.00,21.4,19.6,00.0,30.4,23.0,11.6,0000.0,0004.60,0002.71,0002.16
2022-11-29 21:03:00,,0818.9,5.00,0.00,21.3,19.5,00.0,30.3,22.9,11.6,0000.0,0004.51,0002.71,0002.17
2022-11-29 21:04:00,,0818.9,5.01,0.00,21.3,19.5,00.0,30.3,22.9,11.6,0000.0,0004.39,0002.68,0002.19
2022-11-29 21:05:00,,0819.0,5.00,0.00,21.3,19.7,00.0,30.3,23.0,11.6,0000.0,0004.34,0002.69,0002.21
2022-11-29 21:06:00,,0819.1,5.00,0.00,21.3,19.8,00.0,30.3,23.0,11.6,0000.0,0004.52,0002.75,0002.22
2022-11-29 21:07:00,,0819.2,4.99,0.00,21.3,19.9,00.0,30.3,23.1,11.7,0000.0,0004.36,0002.77,0002.23
2022-11-29 21:08:00,,0819.2,5.00,0.00,21.3,20.0,00.0,30.3,23.1,11.6,0000.0,0004.40,0002.79,0002.24
2022-11-29 21:09:00,,0819.2,5.00,0.00,21.3,20.1,00.0,30.3,23.2,11.6,0000.0,0004.42,0002.79,0002.25
2022-11-29 21:10:00,,0819.2,5.01,0.00,21.4,20.2,00.0,30.3,23.2,11.6,0000.0,0004.63,0002.84,0002.26
2022-11-29 21:11:00,,0819.0,5.01,0.00,21.4,20.3,00.0,30.3,23.2,11.6,0000.0,0004.67,0002.84,0002.25
2022-11-29 21:12:00,,0818.9,4.99,0.00,21.4,20.3,00.0,30.3,23.2,11.6,0000.0,0004.45,0002.81,0002.25
2022-11-29 21:13:00,,0818.9,4.99,0.00,21.4,20.2,00.0,30.3,23.2,11.6,0000.0,0004.57,0002.79,0002.26
2022-11-29 21:14:00,,0819.0,5.00,0.00,21.4,20.2,00.0,30.3,23.2,11.5,0000.0,0004.63,0002.82,0002.26
2022-11-29 21:15:00,,0819.1,5.01,0.00,21.4,20.2,00.0,30.3,23.2,11.5,0000.0,0004.97,0002.89,0002.27
2022-11-29 21:16:00,,0819.1,5.00,0.00,21.4,20.2,00.0,30.3,23.2,11.5,0000.0,0005.68,0002.90,0002.26
2022-11-29 21:17:00,,0819.2,4.99,0.00,21.4,20.2,00.0,30.4,23.2,11.5,0000.0,0005.52,0002.88,0002.27
2022-11-29 21:18:00,,0819.3,4.99,0.00,21.4,20.4,00.0,30.3,23.3,11.5,0000.0,0005.54,0002.91,0002.27
2022-11-29 21:19:00,,0819.3,5.01,0.00,21.5,21.3,00.0,30.3,23.5,11.5,0000.0,0005.57,0002.92,0002.27
2022-11-29 21:20:00,,0819.3,4.99,0.00,21.6,22.1,00.0,30.3,23.7,11.4,0000.0,0005.83,0002.98,0002.29
2022-11-29 21:21:00,,0819.2,4.99,0.00,21.7,22.0,00.0,30.4,23.8,11.4,0000.0,0005.89,0003.00,0002.29
2022-11-29 21:22:00,,0819.2,5.00,0.00,21.8,21.7,00.0,30.5,23.8,11.3,0000.0,0005.97,0003.04,0002.30
2022-11-29 21:23:00,,0819.2,5.00,0.00,21.8,21.5,00.0,30.5,23.7,11.3,0000.0,0005.89,0003.04,0002.31
2022-11-29 21:24:00,,0819.3,5.00,0.00,21.8,21.3,00.0,30.5,23.7,11.3,0000.0,0005.72,0003.06,0002.32
2022-11-29 21:25:00,,0819.2,5.00,0.00,21.8,21.2,00.0,30.6,23.7,11.3,0000.0,0005.59,0003.02,0002.34
2022-11-29 21:26:00,,0819.1,5.00,0.00,21.8,21.1,00.0,30.6,23.8,11.3,0000.0,0005.47,0003.00,0002.35
2022-11-29 21:27:00,,0819.1,5.01,0.00,21.8,21.0,00.0,30.6,23.7,11.2,0000.0,0004.65,0002.97,0002.36
2022-11-29 21:28:00,,0819.1,5.00,0.00,21.8,20.9,00.0,30.6,23.7,11.2,0000.0,0004.72,0002.95,0002.35
2022-11-29 21:29:00,,0819.1,5.00,0.00,21.8,20.8,00.0,30.7,23.7,11.2,0000.0,0004.77,0002.91,0002.35
2022-11-29 21:30:00,,0819.2,5.00,0.00,21.8,20.7,00.0,30.7,23.6,11.1,0000.0,0004.94,0002.94,0002.36
2022-11-29 21:31:00,,0819.1,4.99,0.00,21.8,20.6,00.0,30.7,23.6,11.1,0000.0,0004.89,0002.91,0002.37
2022-11-29 21:32:00,,0819.2,4.99,0.00,21.8,20.5,00.0,30.7,23.5,11.1,0000.0,0004.95,0002.92,0002.40
2022-11-29 21:33:00,,0819.1,5.00,0.00,21.8,20.5,00.0,30.7,23.5,11.2,0000.0,0004.97,0002.95,0002.43
2022-11-29 21:34:00,,0819.1,5.00,0.00,21.8,20.5,00.0,30.7,23.6,11.2,0000.0,0005.31,0003.02,0002.45
2022-11-29 21:35:00,,0819.1,5.00,0.00,21.7,20.4,00.0,30.7,23.5,11.2,0000.0,0005.41,0003.04,0002.47
2022-11-29 21:36:00,,0819.1,5.00,0.00,21.7,20.3,00.0,30.7,23.4,11.2,0000.0,0005.54,0003.10,0002.48
2022-11-29 21:37:00,,0819.2,4.99,0.00,21.7,20.2,00.0,30.7,23.4,11.2,0000.0,0005.71,0003.13,0002.50
2022-11-29 21:38:00,,0819.3,5.00,0.00,21.7,20.2,00.0,30.7,23.4,11.2,0000.0,0005.88,0003.15,0002.53
2022-11-29 21:39:00,,0819.3,5.01,0.00,21.7,20.3,00.0,30.7,23.5,11.1,0000.0,0005.77,0003.17,0002.55
2022-11-29 21:40:00,,0819.4,5.01,0.00,21.7,20.4,00.0,30.7,23.5,11.1,0000.0,0005.62,0003.18,0002.60
2022-11-29 21:41:00,,0819.4,5.00,0.00,21.7,20.4,00.0,30.7,23.5,11.1,0000.0,0005.41,0003.18,0002.63
2022-11-29 21:42:00,,0819.6,5.00,0.00,21.7,20.5,00.0,30.7,23.6,11.1,0000.0,0005.41,0003.21,0002.67
2022-11-29 21:43:00,,0819.8,5.00,0.00,21.7,20.5,00.0,30.7,23.6,11.0,0000.0,0005.25,0003.22,0002.69
2022-11-29 21:44:00,,0819.9,5.00,0.00,21.7,20.5,00.0,30.7,23.5,11.0,0000.0,0005.19,0003.21,0002.71
2022-11-29 21:45:00,,0819.9,4.99,0.00,21.7,20.5,00.0,30.7,23.6,11.0,0000.0,0004.99,0003.19,0002.73
2022-11-29 21:46:00,,0819.8,5.00,0.00,21.7,20.5,00.0,30.7,23.5,10.9,0000.0,0005.82,0003.19,0002.74
2022-11-29 21:47:00,,0819.9,5.01,0.00,21.7,20.5,00.0,30.7,23.6,10.9,0000.0,0005.89,0003.19,0002.74
2022-11-29 21:48:00,,0819.9,5.00,0.00,21.7,20.5,00.0,30.7,23.5,10.9,0000.0,0005.73,0003.17,0002.73
2022-11-29 21:49:00,,0820.0,5.00,0.00,21.7,20.5,00.0,30.7,23.5,10.9,0000.0,0005.49,0003.14,0002.72
2022-11-29 21:50:00,,0819.9,5.00,0.00,21.7,20.4,00.0,30.7,23.5,11.0,0000.0,0005.49,0003.13,0002.72
2022-11-29 21:51:00,,0819.8,5.00,0.00,21.7,20.4,00.0,30.7,23.5,11.0,0000.0,0005.54,0003.12,0002.71
2022-11-29 21:52:00,,0819.8,4.99,0.00,21.7,20.4,00.0,30.7,23.5,11.0,0000.0,0005.51,0003.10,0002.70
2022-11-29 21:53:00,,0819.8,4.99,0.00,21.7,20.4,00.0,30.7,23.5,11.1,0000.0,0005.44,0003.04,0002.67
2022-11-29 21:54:00,,0819.9,5.01,0.00,21.7,20.4,00.0,30.7,23.6,11.1,0000.0,0005.42,0002.99,0002.65
2022-11-29 21:55:00,,0820.0,5.01,0.00,21.7,20.5,00.0,30.7,23.6,11.1,0000.0,0005.36,0002.97,0002.64
2022-11-29 21:56:00,,0819.9,5.00,0.00,21.7,20.4,00.0,30.7,23.5,11.0,0000.0,0005.16,0002.95,0002.63
2022-11-29 21:57:00,,0820.0,4.99,0.00,21.7,20.4,00.0,30.7,23.5,11.0,0000.0,0004.45,0002.96,0002.64
2022-11-29 21:58:00,,0819.9,5.00,0.00,21.8,20.9,00.0,30.6,23.7,11.0,0000.0,0004.27,0002.92,0002.63
2022-11-29 21:59:00,,0819.9,5.01,0.00,21.9,21.8,00.0,30.6,23.9,11.0,0000.0,0004.66,0002.96,0002.63
